Piloten Info

Wichtige Hinweise:

  • Neue Tower Frequenz 122,330 kHz - keine Landung ohne Funkkontakt
  • PPR Betrieb
  • Temporäre Hindernisse (Baukräne) nahe dem Flugplatz durch Bauarbeiten entlang der Nürnberger Straße (Östliche Seite).
  • Starts auf RWY 09 sind nicht gestattet. Start generell auf RWY 27. Bei Planung Rückenwinde berücksichtigen!
  • Bei Anflügen auf RWY 27 sind Hindernisse vorhanden, aus diesem Grund die versetzte Schwelle27!
  • Der Flugverein Neumarkt führt seine Starts generell auf RWY 27 und Landungen auf RWY09 durch.
  • Es besteht keine Tankmöglichkeit.

Diese Hinweis sind als Ergänzung / Hilfe zur regulären Flugplanung gedacht.

Auszüge aus AIP VFR ohne Gewähr - es gelten die offiziellen Veröffentlichungen.







METAR Informationen der nächstgelegenen Flughäfen


EDDN / Flughafen Nürnberg „Albrecht Dürer“

EDDN 190150Z 11007KT CAVOK M02/M02 Q1018

ETIC / Fliegerhorst Grafenwöhr AAF

ETIC 190156Z AUTO 10005KT 9999 OVC004 M01/M01 A3008 RMK AO2 SLP209 T10061006 $

ETIH / Fliegerhorst Hohenfels AAF

ETIH 190156Z AUTO 11003KT 9999 FEW007 M A3010 RMK AO2 SLPNO ALSTG ESTMD $